Vernal, UT

2:59 PM MST on November 16, 2019 (GMT -0700)
Vernal

Weather History for KVEL - June, 2019

Change the Weather History Date:

Wednesday, June 5, 2019

  Actual Average Record
Temperature  
Mean Temperature 66 °F 62 °F  
Max Temperature 82 °F 77 °F 95 °F (1977)
Min Temperature 50 °F 48 °F 30 °F (1937)
Degree Days  
Heating Degree Days 0 4  
Month to date heating degree days 9 22  
Since 1 June heating degree days 9 22  
Since 1 July heating degree days 7490 7170  
Cooling Degree Days 1 1  
Month to date cooling degree days 1 5  
Year to date cooling degree days 2 14  
Since 1 June cooling degree days 1 5  
Growing Degree Days 16 (Base 50)    
Moisture  
Dew Point 42 °F    
Average Humidity 42    
Maximum Humidity 71    
Minimum Humidity 23    
Precipitation  
Precipitation 0.00 in 0.03 in 0.37 in (1984)
Month to date precipitation 0.00 0.15  
Year to date precipitation 7.42 3.56  
Sea Level Pressure  
Sea Level Pressure 29.90 in    
Wind  
Wind Speed 3 mph ()    
Max Wind Speed 10 mph    
Max Gust Speed 18 mph    
Visibility 10.0 miles    
Events      
T = Trace of Precipitation, MM = Missing Value Source: Averaged Metar Reports

Daily Weather History Graph

Daily Weather History Graph

Search for Another Location

Airport or City:

Astronomy

Jun. 05, 2019 Rise Set
Actual Time 5:48 AM MDT 8:44 PM MDT
Civil Twilight 5:15 AM MDT 9:17 PM MDT
Nautical Twilight 4:34 AM MDT 9:59 PM MDT
Astronomical Twilight 3:46 AM MDT 10:47 PM MDT
Moon 7:57 AM MDT (6/5) 11:14 PM MDT (6/5)
Length of Visible Light 16h 01m
Length of Day
14h 56m
Waxing Crescent, 7% of the Moon is Illuminated
Jun 5
Waxing Crescent
Jun 10
First Quarter
Jun 17
Full
Jun 25
Last Quarter
Jul 2
New

Hourly Weather History & Observations

Time (MDT) Temp. Dew Point Humidity Pressure Visibility Wind Dir Wind Speed Gust Speed Precip Events Conditions
12:53 AM 59.0 °F 41.0 °F 51% 29.92 in 10.0 mi Calm Calm - N/A   Clear
1:53 AM 55.9 °F 42.1 °F 60% 29.93 in 10.0 mi NNW 5.8 mph - N/A   Clear
2:53 AM 55.9 °F 44.1 °F 64% 29.93 in 10.0 mi WNW 4.6 mph - N/A   Mostly Cloudy
3:53 AM 57.9 °F 42.1 °F 56% 29.91 in 10.0 mi North 3.5 mph - N/A   Clear
4:53 AM 54.0 °F 41.0 °F 62% 29.94 in 10.0 mi WNW 4.6 mph - N/A   Partly Cloudy
5:53 AM 50.0 °F 41.0 °F 71% 29.97 in 10.0 mi Calm Calm - N/A   Mostly Cloudy
6:53 AM 55.9 °F 42.1 °F 60% 29.96 in 10.0 mi NW 3.5 mph - N/A   Clear
7:53 AM 64.0 °F 42.1 °F 45% 29.95 in 10.0 mi Calm Calm - N/A   Clear
8:53 AM 66.9 °F 43.0 °F 42% 29.96 in 10.0 mi South 3.5 mph - N/A   Partly Cloudy
9:53 AM 70.0 °F 46.0 °F 42% 29.95 in 10.0 mi Variable 3.5 mph - N/A   Clear
10:53 AM 72.0 °F 46.9 °F 41% 29.94 in 10.0 mi South 8.1 mph - N/A   Clear
11:53 AM 73.9 °F 44.1 °F 34% 29.94 in 10.0 mi Variable 3.5 mph - N/A   Scattered Clouds
12:53 PM 75.9 °F 43.0 °F 31% 29.92 in 10.0 mi Calm Calm - N/A   Partly Cloudy
1:53 PM 78.1 °F 43.0 °F 29% 29.90 in 10.0 mi WSW 9.2 mph - N/A   Clear
2:53 PM 80.1 °F 41.0 °F 25% 29.87 in 10.0 mi Variable 3.5 mph - N/A   Clear
3:53 PM 80.1 °F 39.9 °F 24% 29.85 in 10.0 mi Calm Calm - N/A   Clear
4:53 PM 82.0 °F 41.0 °F 23% 29.83 in 10.0 mi SSW 3.5 mph - N/A   Clear
5:53 PM 80.1 °F 41.0 °F 25% 29.84 in 10.0 mi Calm Calm - N/A   Clear
6:53 PM 80.1 °F 39.9 °F 24% 29.82 in 10.0 mi SW 3.5 mph - N/A   Partly Cloudy
7:53 PM 75.0 °F 43.0 °F 32% 29.82 in 10.0 mi NE 4.6 mph - N/A   Mostly Cloudy
8:53 PM 70.0 °F 46.9 °F 44% 29.83 in 10.0 mi North 5.8 mph - N/A   Partly Cloudy
9:53 PM 68.0 °F 41.0 °F 37% 29.85 in 10.0 mi NNE 4.6 mph - N/A   Partly Cloudy
10:53 PM 61.0 °F 43.0 °F 52% 29.87 in 10.0 mi North 3.5 mph - N/A   Clear
11:53 PM 62.1 °F 39.9 °F 44% 29.87 in 10.0 mi Calm Calm - N/A   Clear